Time,TemperatureF,DewpointF,PressureIn,WindDirection,WindDirectionDegrees,WindSpeedMPH,WindSpeedGustMPH,Humidity,HourlyPrecipIn,Conditions,Clouds,dailyrainin,SoftwareType,DateUTC
2013-09-20 00:00:00,65.1,59.8,29.89,West,270,6.3,-999.0,83,-99.99,,,0.00,Acu-Link.com,2013-09-20 04:00:00,
2013-09-20 00:15:00,64.9,59.9,29.89,West,270,3.2,-999.0,84,-99.99,,,0.00,Acu-Link.com,2013-09-20 04:15:00,
2013-09-20 00:30:00,64.8,58.8,29.89,West,270,4.7,-999.0,81,-99.99,,,0.00,Acu-Link.com,2013-09-20 04:30:00,
2013-09-20 00:45:00,64.8,58.1,29.89,West,270,2.7,-999.0,79,-99.99,,,0.00,Acu-Link.com,2013-09-20 04:45:00,
2013-09-20 01:00:00,64.4,57.7,29.89,West,270,2.2,-999.0,79,-99.99,,,0.00,Acu-Link.com,2013-09-20 05:00:00,
2013-09-20 01:16:00,64.0,57.7,29.89,West,270,2.7,-999.0,80,-99.99,,,0.00,Acu-Link.com,2013-09-20 05:16:00,
2013-09-20 01:31:00,63.7,57.8,29.89,West,270,2.7,-999.0,81,-99.99,,,0.00,Acu-Link.com,2013-09-20 05:31:00,
2013-09-20 01:46:00,63.3,57.7,29.89,West,270,4.2,-999.0,82,-99.99,,,0.00,Acu-Link.com,2013-09-20 05:46:00,
2013-09-20 02:01:00,63.0,57.8,29.89,West,270,2.7,-999.0,83,-99.99,,,0.00,Acu-Link.com,2013-09-20 06:01:00,
2013-09-20 02:16:00,62.4,57.2,29.89,WSW,247,3.2,-999.0,83,-99.99,,,0.00,Acu-Link.com,2013-09-20 06:16:00,
2013-09-20 02:31:00,62.2,57.0,29.89,NW,315,3.2,-999.0,83,-99.99,,,0.00,Acu-Link.com,2013-09-20 06:31:00,
2013-09-20 02:47:00,61.9,56.7,29.89,West,270,6.3,-999.0,83,-99.99,,,0.00,Acu-Link.com,2013-09-20 06:47:00,
2013-09-20 03:02:00,61.7,56.8,29.89,West,270,2.2,-999.0,84,-99.99,,,0.00,Acu-Link.com,2013-09-20 07:02:00,
2013-09-20 03:17:00,61.7,56.5,29.90,West,270,5.3,-999.0,83,-99.99,,,0.00,Acu-Link.com,2013-09-20 07:17:00,
2013-09-20 03:33:00,61.5,56.3,29.89,West,270,2.7,-999.0,83,-99.99,,,0.00,Acu-Link.com,2013-09-20 07:33:00,
2013-09-20 03:48:00,61.5,56.6,29.90,West,270,4.7,-999.0,84,-99.99,,,0.00,Acu-Link.com,2013-09-20 07:48:00,
2013-09-20 04:03:00,61.3,56.4,29.89,WNW,292,4.7,-999.0,84,-99.99,,,0.00,Acu-Link.com,2013-09-20 08:03:00,
2013-09-20 04:18:00,61.3,56.4,29.89,West,270,4.7,-999.0,84,-99.99,,,0.00,Acu-Link.com,2013-09-20 08:18:00,
2013-09-20 04:34:00,61.3,56.4,29.89,West,270,3.7,-999.0,84,-99.99,,,0.00,Acu-Link.com,2013-09-20 08:34:00,
2013-09-20 04:49:00,61.3,56.7,29.89,WSW,247,2.7,-999.0,85,-99.99,,,0.00,Acu-Link.com,2013-09-20 08:49:00,
2013-09-20 05:04:00,61.2,56.7,29.89,North,0,3.7,-999.0,85,-99.99,,,0.00,Acu-Link.com,2013-09-20 09:04:00,
2013-09-20 05:19:00,61.2,56.7,29.89,WNW,292,2.2,-999.0,85,-99.99,,,0.00,Acu-Link.com,2013-09-20 09:19:00,
2013-09-20 05:34:00,61.0,56.8,29.88,West,270,3.2,-999.0,86,-99.99,,,0.00,Acu-Link.com,2013-09-20 09:34:00,
2013-09-20 05:49:00,60.8,56.9,29.89,West,270,2.2,-999.0,87,-99.99,,,0.00,Acu-Link.com,2013-09-20 09:49:00,
2013-09-20 06:04:00,60.8,56.9,29.89,West,270,3.2,-999.0,87,-99.99,,,0.00,Acu-Link.com,2013-09-20 10:04:00,
2013-09-20 06:20:00,60.6,57.0,29.89,West,270,2.7,-999.0,88,-99.99,,,0.00,Acu-Link.com,2013-09-20 10:20:00,
2013-09-20 06:35:00,60.6,57.0,29.89,West,270,3.7,-999.0,88,-99.99,,,0.00,Acu-Link.com,2013-09-20 10:35:00,
2013-09-20 06:50:00,60.6,57.0,29.90,West,270,3.2,-999.0,88,-99.99,,,0.00,Acu-Link.com,2013-09-20 10:50:00,
2013-09-20 07:05:00,60.6,57.0,29.90,West,270,4.7,-999.0,88,-99.99,,,0.00,Acu-Link.com,2013-09-20 11:05:00,
2013-09-20 07:20:00,60.6,57.0,29.90,West,270,2.7,-999.0,88,-99.99,,,0.00,Acu-Link.com,2013-09-20 11:20:00,
2013-09-20 07:36:00,60.8,57.2,29.90,West,270,2.7,-999.0,88,-99.99,,,0.00,Acu-Link.com,2013-09-20 11:36:00,
2013-09-20 07:51:00,61.0,57.4,29.90,West,270,3.2,-999.0,88,-99.99,,,0.00,Acu-Link.com,2013-09-20 11:51:00,
2013-09-20 08:06:00,61.7,57.8,29.89,West,270,4.7,-999.0,87,-99.99,,,0.00,Acu-Link.com,2013-09-20 12:06:00,
2013-09-20 08:21:00,62.2,58.0,29.89,West,270,3.7,-999.0,86,-99.99,,,0.00,Acu-Link.com,2013-09-20 12:21:00,
2013-09-20 08:37:00,63.0,58.4,29.89,NNE,22,3.2,-999.0,85,-99.99,,,0.00,Acu-Link.com,2013-09-20 12:37:00,
2013-09-20 08:52:00,64.9,58.9,29.89,North,0,1.7,-999.0,81,-99.99,,,0.00,Acu-Link.com,2013-09-20 12:52:00,
2013-09-20 09:07:00,66.6,59.2,29.90,West,270,1.7,-999.0,77,-99.99,,,0.00,Acu-Link.com,2013-09-20 13:07:00,
2013-09-20 09:23:00,68.4,59.8,29.91,WSW,247,3.7,-999.0,74,-99.99,,,0.00,Acu-Link.com,2013-09-20 13:23:00,
2013-09-20 09:38:00,67.5,58.9,29.91,West,270,2.7,-999.0,74,-99.99,,,0.00,Acu-Link.com,2013-09-20 13:38:00,
2013-09-20 09:53:00,67.8,59.2,29.90,West,270,4.7,-999.0,74,-99.99,,,0.00,Acu-Link.com,2013-09-20 13:53:00,
2013-09-20 10:08:00,68.7,59.3,29.90,WNW,292,2.7,-999.0,72,-99.99,,,0.00,Acu-Link.com,2013-09-20 14:08:00,
2013-09-20 10:24:00,68.9,59.5,29.90,West,270,3.2,-999.0,72,-99.99,,,0.00,Acu-Link.com,2013-09-20 14:24:00,
2013-09-20 10:39:00,70.7,60.4,29.90,West,270,3.7,-999.0,70,-99.99,,,0.00,Acu-Link.com,2013-09-20 14:39:00,
2013-09-20 10:54:00,71.8,60.7,29.91,West,270,3.2,-999.0,68,-99.99,,,0.00,Acu-Link.com,2013-09-20 14:54:00,
2013-09-20 11:10:00,71.8,60.2,29.90,West,270,0.0,-999.0,67,-99.99,,,0.00,Acu-Link.com,2013-09-20 15:10:00,
2013-09-20 11:25:00,73.4,60.5,29.90,West,270,1.1,-999.0,64,-99.99,,,0.00,Acu-Link.com,2013-09-20 15:25:00,
2013-09-20 11:40:00,74.7,60.8,29.89,WSW,247,2.7,-999.0,62,-99.99,,,0.00,Acu-Link.com,2013-09-20 15:40:00,
2013-09-20 11:56:00,75.6,60.2,29.88,West,270,4.2,-999.0,59,-99.99,,,0.00,Acu-Link.com,2013-09-20 15:56:00,
2013-09-20 12:11:00,75.6,59.8,29.87,ESE,112,1.1,-999.0,58,-99.99,,,0.00,Acu-Link.com,2013-09-20 16:11:00,
2013-09-20 12:26:00,76.1,59.7,29.88,West,270,3.7,-999.0,57,-99.99,,,0.00,Acu-Link.com,2013-09-20 16:26:00,
2013-09-20 12:41:00,76.6,58.7,29.87,ESE,112,0.0,-999.0,54,-99.99,,,0.00,Acu-Link.com,2013-09-20 16:41:00,
2013-09-20 12:57:00,77.9,59.4,29.87,West,270,3.2,-999.0,53,-99.99,,,0.00,Acu-Link.com,2013-09-20 16:57:00,
2013-09-20 13:12:00,77.2,59.8,29.86,West,270,4.2,-999.0,55,-99.99,,,0.00,Acu-Link.com,2013-09-20 17:12:00,
2013-09-20 13:27:00,77.5,60.0,29.85,East,90,1.1,-999.0,55,-99.99,,,0.00,Acu-Link.com,2013-09-20 17:27:00,
2013-09-20 13:42:00,78.3,60.3,29.85,NNW,337,3.7,-999.0,54,-99.99,,,0.00,Acu-Link.com,2013-09-20 17:42:00,
2013-09-20 13:58:00,79.0,59.3,29.85,West,270,4.2,-999.0,51,-99.99,,,0.00,Acu-Link.com,2013-09-20 17:58:00,
2013-09-20 14:13:00,78.4,60.4,29.84,West,270,4.2,-999.0,54,-99.99,,,0.00,Acu-Link.com,2013-09-20 18:13:00,
2013-09-20 14:28:00,79.0,60.4,29.84,West,270,4.2,-999.0,53,-99.99,,,0.00,Acu-Link.com,2013-09-20 18:28:00,
2013-09-20 14:43:00,78.6,60.0,29.83,West,270,7.3,-999.0,53,-99.99,,,0.00,Acu-Link.com,2013-09-20 18:43:00,
2013-09-20 14:59:00,78.4,60.4,29.84,West,270,2.2,-999.0,54,-99.99,,,0.00,Acu-Link.com,2013-09-20 18:59:00,
2013-09-20 15:14:00,78.8,60.2,29.83,West,270,5.8,-999.0,53,-99.99,,,0.00,Acu-Link.com,2013-09-20 19:14:00,
2013-09-20 15:29:00,78.6,60.5,29.83,North,0,1.1,-999.0,54,-99.99,,,0.00,Acu-Link.com,2013-09-20 19:29:00,
2013-09-20 15:44:00,78.4,59.3,29.82,SSE,157,0.0,-999.0,52,-99.99,,,0.00,Acu-Link.com,2013-09-20 19:44:00,
2013-09-20 16:00:00,79.5,59.2,29.82,East,90,3.2,-999.0,50,-99.99,,,0.00,Acu-Link.com,2013-09-20 20:00:00,
2013-09-20 16:15:00,79.5,59.2,29.82,East,90,1.1,-999.0,50,-99.99,,,0.00,Acu-Link.com,2013-09-20 20:15:00,
2013-09-20 16:30:00,78.6,58.4,29.82,East,90,3.2,-999.0,50,-99.99,,,0.00,Acu-Link.com,2013-09-20 20:30:00,
2013-09-20 16:45:00,78.1,58.5,29.83,East,90,0.0,-999.0,51,-99.99,,,0.00,Acu-Link.com,2013-09-20 20:45:00,
2013-09-20 17:00:00,79.2,58.9,29.82,East,90,2.7,-999.0,50,-99.99,,,0.00,Acu-Link.com,2013-09-20 21:00:00,
2013-09-20 17:16:00,76.6,58.2,29.82,East,90,2.7,-999.0,53,-99.99,,,0.00,Acu-Link.com,2013-09-20 21:16:00,
2013-09-20 17:31:00,75.4,58.1,29.83,East,90,3.7,-999.0,55,-99.99,,,0.00,Acu-Link.com,2013-09-20 21:31:00,
2013-09-20 17:46:00,73.9,57.7,29.83,ESE,112,2.7,-999.0,57,-99.99,,,0.00,Acu-Link.com,2013-09-20 21:46:00,
2013-09-20 18:02:00,73.2,57.5,29.83,East,90,4.2,-999.0,58,-99.99,,,0.00,Acu-Link.com,2013-09-20 22:02:00,
2013-09-20 18:17:00,73.9,57.7,29.82,East,90,3.2,-999.0,57,-99.99,,,0.00,Acu-Link.com,2013-09-20 22:17:00,
2013-09-20 18:32:00,72.9,57.7,29.82,ESE,112,3.2,-999.0,59,-99.99,,,0.00,Acu-Link.com,2013-09-20 22:32:00,
2013-09-20 18:47:00,71.8,59.4,29.82,East,90,4.2,-999.0,65,-99.99,,,0.00,Acu-Link.com,2013-09-20 22:47:00,
2013-09-20 19:02:00,70.9,59.4,29.82,East,90,2.7,-999.0,67,-99.99,,,0.00,Acu-Link.com,2013-09-20 23:02:00,
2013-09-20 19:18:00,70.0,58.9,29.82,East,90,3.7,-999.0,68,-99.99,,,0.00,Acu-Link.com,2013-09-20 23:18:00,
2013-09-20 19:33:00,69.3,59.1,29.82,ESE,112,2.7,-999.0,70,-99.99,,,0.00,Acu-Link.com,2013-09-20 23:33:00,
2013-09-20 19:48:00,68.9,59.1,29.82,NE,45,1.1,-999.0,71,-99.99,,,0.00,Acu-Link.com,2013-09-20 23:48:00,
2013-09-20 20:04:00,68.7,59.3,29.83,East,90,1.7,-999.0,72,-99.99,,,0.00,Acu-Link.com,2013-09-21 00:04:00,
2013-09-20 20:19:00,68.5,59.1,29.82,East,90,2.2,-999.0,72,-99.99,,,0.00,Acu-Link.com,2013-09-21 00:19:00,
2013-09-20 20:34:00,68.4,59.4,29.82,NNE,22,3.2,-999.0,73,-99.99,,,0.00,Acu-Link.com,2013-09-21 00:34:00,
2013-09-20 20:50:00,68.0,59.4,29.83,East,90,2.7,-999.0,74,-99.99,,,0.00,Acu-Link.com,2013-09-21 00:50:00,
2013-09-20 21:05:00,67.8,59.2,29.83,North,0,2.7,-999.0,74,-99.99,,,0.00,Acu-Link.com,2013-09-21 01:05:00,
2013-09-20 21:21:00,67.5,59.3,29.83,NNE,22,1.1,-999.0,75,-99.99,,,0.00,Acu-Link.com,2013-09-21 01:21:00,
2013-09-20 21:36:00,67.5,59.3,29.83,ESE,112,1.1,-999.0,75,-99.99,,,0.00,Acu-Link.com,2013-09-21 01:36:00,
2013-09-20 21:51:00,67.1,59.6,29.82,NW,315,2.2,-999.0,77,-99.99,,,0.00,Acu-Link.com,2013-09-21 01:51:00,
2013-09-20 22:06:00,66.9,59.8,29.82,South,180,0.0,-999.0,78,-99.99,,,0.00,Acu-Link.com,2013-09-21 02:06:00,
2013-09-20 22:22:00,67.1,60.4,29.83,West,270,3.2,-999.0,79,-99.99,,,0.00,Acu-Link.com,2013-09-21 02:22:00,
2013-09-20 22:37:00,67.1,60.0,29.83,SSW,202,0.0,-999.0,78,-99.99,,,0.00,Acu-Link.com,2013-09-21 02:37:00,
2013-09-20 22:52:00,67.3,60.2,29.83,East,90,0.0,-999.0,78,-99.99,,,0.00,Acu-Link.com,2013-09-21 02:52:00,
2013-09-20 23:07:00,66.7,61.0,29.83,West,270,6.3,-999.0,82,-99.99,,,0.00,Acu-Link.com,2013-09-21 03:07:00,
2013-09-20 23:23:00,66.4,61.4,29.83,North,0,2.2,-999.0,84,-99.99,,,0.00,Acu-Link.com,2013-09-21 03:23:00,
2013-09-20 23:38:00,66.2,60.9,29.82,NW,315,0.0,-999.0,83,-99.99,,,0.00,Acu-Link.com,2013-09-21 03:38:00,
2013-09-20 23:53:00,66.4,60.7,29.82,WSW,247,0.0,-999.0,82,-99.99,,,0.00,Acu-Link.com,2013-09-21 03:53:00,